Location: Cedar Falls
(42.5280°N, 92.4450°W)
Time: 15:04:03
(UTC-06:00)

NOSS 3-1 (C) - Visible Passes

Search period start: 23 November 2014 00:00
Search period end: 03 December 2014 00:00
Orbit: 890 x 1319 km, 63.4° (Epoch: 18 November)

Date Brightness Start Highest point End Pass type
(mag) Time Alt. Az. Time Alt. Az. Time Alt. Az.
23 Nov 5.7 18:01:10 10° NW 18:04:49 15° NNW 18:08:40 10° NNE visible
23 Nov 5.8 19:55:19 10° NNW 19:57:32 14° N 19:57:32 14° N visible
24 Nov 5.5 17:14:27 10° WNW 17:18:47 18° NNW 17:23:24 10° NNE visible
24 Nov 5.7 19:09:45 10° NNW 19:12:52 13° N 19:13:43 13° NNE visible
24 Nov 6.2 21:00:48 10° NNW 21:01:07 11° NNW 21:01:07 11° NNW visible
25 Nov 5.7 18:23:41 10° NNW 18:26:40 13° N 18:29:46 10° NNE visible
25 Nov 5.9 20:15:43 10° NNW 20:17:18 15° N 20:17:18 15° N visible
26 Nov 5.7 17:37:09 10° NW 17:40:29 14° N 17:43:58 10° NNE visible
26 Nov 5.7 19:30:32 10° NNW 19:33:30 15° N 19:33:30 15° N visible
27 Nov 5.6 18:45:09 10° NNW 18:48:34 14° N 18:49:43 13° NNE visible
27 Nov 6.0 20:35:53 10° NNW 20:37:07 15° NNW 20:37:07 15° NNW visible
28 Nov 5.7 17:59:23 10° NNW 18:02:22 13° N 18:05:29 10° NNE visible
28 Nov 5.6 19:50:49 10° NNW 19:53:21 18° N 19:53:21 18° N visible
29 Nov 5.7 17:13:05 10° NNW 17:16:10 13° N 17:19:23 10° NNE visible
29 Nov 5.5 19:05:41 10° NNW 19:09:36 18° NNE 19:09:36 18° NNE visible
29 Nov 6.1 20:56:02 10° NNW 20:57:00 14° NNW 20:57:00 14° NNW visible
30 Nov 5.5 18:20:26 10° NNW 18:24:15 15° NNE 18:25:52 14° NNE visible
30 Nov 5.6 20:10:58 10° NNW 20:13:17 20° NNW 20:13:17 20° NNW visible
01 Dec 5.6 17:34:54 10° NNW 17:38:05 13° N 17:41:23 10° NNE visible
01 Dec 5.3 19:25:54 10° NNW 19:29:36 23° N 19:29:36 23° N visible
01 Dec 6.2 21:16:19 10° NW 21:17:00 13° NW 21:17:00 13° NW visible
02 Dec 5.2 18:40:48 10° NNW 18:45:56 20° NNE 18:45:57 20° NNE visible
02 Dec 5.6 20:31:09 10° NNW 20:33:21 21° NNW 20:33:21 21° NNW visible
